Miscellaneous Local Product
Issued by NWS Hastings, NE

Home | Current Version | Previous Version | Text Only | Print | Product List | Glossary Off
Versions: 1 2 3 4 5 6 7 8 9 10 11 12 13 14 15 16 17 18 19 20 21 22 23 24 25 26 27 28 29 30 31 32 33 34 35 36 37 38 39 40 41 42 43 44 45 46 47 48 49 50

000
AXUS43 KGID 150102
MISGRI

GID CWA HOURLY WEATHER ROUNDUP
NATIONAL WEATHER SERVICE HASTINGS NE
800 PM CDT SUN SEP 14 2014

NOTE: "FAIR" INDICATES FEW OR NO CLOUDS BELOW 12,000 FEET WITH NO
SIGNIFICANT WEATHER AND/OR OBSTRUCTIONS TO VISIBILITY.

...SOUTH CENTRAL NEBRASKA...

CITY           SKY/WX    TMP DP  RH WIND       PRES   REMARKS
GRAND ISLAND   CLOUDY    64  54  69 E5        30.04F
HASTINGS       PTCLDY    61  52  72 E7        30.03R
KEARNEY        MOCLDY    61  54  77 NE7       30.03S
ORD            CLOUDY    63  54  72 E6        30.02F
YORK           CLOUDY    64  55  72 SE5       30.05F
AURORA         CLOUDY    63  54  70 E3        30.05S
LEXINGTON      CLOUDY    64  56  75 E7        30.02R
HOLDREGE       CLEAR     60  55  84 E8        30.00S
HEBRON         PTCLDY    64  52  65 E7        30.00F

...NEBRASKA PANHANDLE...

CITY           SKY/WX    TMP DP  RH WIND       PRES   REMARKS
CHADRON        CLEAR     56  44  64 N9        30.08R
ALLIANCE       PTCLDY    61  49  64 N14       30.04R
SCOTTSBLUFF    PTCLDY    62  51  67 N9        30.04R
SIDNEY         PTCLDY    68  50  52 E9        30.01R

...WESTERN AND NORTH CENTRAL NEBRASKA...

CITY           SKY/WX    TMP DP  RH WIND       PRES   REMARKS
VALENTINE      CLOUDY    56  44  64 NE13      30.08R
AINSWORTH      CLOUDY    57  47  68 NE10      30.07R
ONEILL         CLOUDY    61  54  77 NE9       30.07S
BROKEN BOW     CLOUDY    65  54  67 SE7       30.03S
IMPERIAL       LGT RAIN  68  59  73 SE18      29.99R
NORTH PLATTE   CLOUDY    64  57  78 SE7       30.02R
MCCOOK         CLEAR     66  58  75 NE7       29.98R

...EASTERN NEBRASKA...

CITY           SKY/WX    TMP DP  RH WIND       PRES   REMARKS
NORFOLK        CLOUDY    64  53  67 E6        30.07S
SO SIOUX CITY  PTCLDY    58  54  86 CALM      30.10R
TEKAMAH        CLOUDY    62  55  77 NE5       30.07F
ALBION         CLOUDY    64  52  64 E6        30.05F
OMAHA EPPLEY   MOCLDY    64  53  67 E5        30.07S
LINCOLN        CLOUDY    67  54  63 SE6       30.06S
NEBRASKA CITY  CLOUDY    65  49  55 S6        30.08S
BEATRICE       CLOUDY    66  54  63 E6        30.04F
FALLS CITY     CLOUDY    66  56  70 SE5       30.07F

...NORTHERN KANSAS...

CITY           SKY/WX    TMP DP  RH WIND       PRES   REMARKS
GOODLAND       CLEAR     68  56  65 S10       29.98R
HILL CITY      CLEAR     74  61  63 E8        29.93F
NORTON         CLEAR     68  55  64 NE6       29.95S
PHILLIPSBURG   CLEAR     70  57  64 E9        29.95S
SMITH CENTER   CLEAR     66  57  72 E15       29.95F
BELOIT         CLEAR     70  61  73 E7        29.97F
HAYS           CLEAR     75  63  64 SE13      29.93F
RUSSELL        PTCLDY    75  62  64 SE12      29.93F
CONCORDIA      CLOUDY    68  61  78 E5        30.00F
SALINA         PTCLDY    74  60  61 SE14      29.98F
TOPEKA         PTCLDY    68  58  70 SE9       30.07F



USA.gov is the U.S. government's official web portal to all federal, state and local government web resources and services.